Погода в Смолино

Россия / Нижегородская область     56°16′27″N   43°05′30″E
темп.,
°C
ветер,
м/с
пор.,
м/с
влажн.,
%
обл.,
%
осадки,
мм/ч
давл.,
гПа
погр.,
м
18 апреля, вс
вс1800:00+5всв411720 0.0 1023309
03:00+4всв413790 0.0 1024338
06:00+3всв412855 0.0 1024345
09:00+9всв610585 0.0 1023790
12:00+13в67415 0.0 10231471
15:00+14в673863 0.0 10232000
18:00+12всв5948100 0.0 1023629
21:00+7всв6127798 0.0 1025657
19 апреля, пн
пн1900:00+5всв51171100 0.0 1026669
03:00+4всв51063100 0.0 1027563
06:00+2всв51165100 0.0 1027598
09:00+4в695899 0.0 1027787
12:00+8в7943100 0.0 10271500
15:00+8в6935100 0.0 10271734
18:00+7в6113998 0.0 10271543
21:00+5в6124489 0.0 1028843
20 апреля, вт
вт2000:00+4в61346100 0.0 1028771
03:00+3в51352100 0.0 1028617
06:00+2в5135798 0.0 1028597
09:00+6вюв7125584 0.0 1027830
12:00+9вюв7115391 0.0 10271377
15:00+11вюв7114266 0.0 10251582
18:00+9вюв7124675 0.0 10241352
21:00+6вюв71446100 0.0 1023882
21 апреля, ср
ср2100:00+5вюв81645100 0.0 1020918
03:00+5вюв91848100 0.0 10171097
06:00+2вюв91890100 2.4 10161016
09:00+3юв81788100 4.1 1014979
12:00+4юв81788100 0.3 1014976
15:00+4юв81688100 0.3 1013929
18:00+5юв81790100 0.1 1013924
21:00+5ююв71492100 0.2 1015781
22 апреля, чт
чт2200:00+6ююв61393100 0.1 1016779
03:00+6ю51190100 0.3 1018685
06:00+6ю51284100 0.1 1019627
09:00+8ю6107568 0.1 10201010
12:00+11юз5854100 0.1 10211803
15:00+11юз475497 0.1 10231326
18:00+10юз2462100 0.0 102496
21:00+8ю226849 0.0 102521